Mojave, CA

6:10 PM PST on December 09, 2019 (GMT -0800)
Mojave

Weather History for KMHV - May, 2019

Change the Weather History Date:

Sunday, May 5, 2019

  Actual Average Record
Temperature  
Mean Temperature 65 °F -  
Max Temperature 77 °F 76 °F 92 °F (1989)
Min Temperature 53 °F 49 °F 38 °F (1975)
Growing Degree Days 15 (Base 50)    
Moisture  
Dew Point 35 °F    
Average Humidity 34    
Maximum Humidity 55    
Minimum Humidity 15    
Precipitation  
Precipitation 0.00 in - - ()
Sea Level Pressure  
Sea Level Pressure 29.79 in    
Wind  
Wind Speed 16 mph (SW)    
Max Wind Speed 26 mph    
Max Gust Speed 33 mph    
Visibility 10 miles    
Events      
Averages and records for this station are not official NWS values.
T = Trace of Precipitation, MM = Missing Value Source: NWS Daily Summary

Daily Weather History Graph

Daily Weather History Graph

Search for Another Location

Airport or City:

Astronomy

May. 05, 2019 Rise Set
Actual Time 5:57 AM PDT 7:41 PM PDT
Civil Twilight 5:30 AM PDT 8:08 PM PDT
Nautical Twilight 4:57 AM PDT 8:41 PM PDT
Astronomical Twilight 4:22 AM PDT 9:16 PM PDT
Moon 6:43 AM PDT (5/5) 8:39 PM PDT (5/5)
Length of Visible Light 14h 38m
Length of Day
13h 43m
New Moon, 1% of the Moon is Illuminated
May 5
New Moon
May 11
First Quarter
May 18
Full
May 26
Last Quarter
Jun 3
New

Hourly Weather History & Observations

Time (PDT) Temp. Dew Point Humidity Pressure Visibility Wind Dir Wind Speed Gust Speed Precip Events Conditions
12:00 AM 64.4 °F 28.4 °F 26% 29.82 in 10.0 mi West 16.1 mph - N/A   Clear
12:20 AM 64.4 °F 28.4 °F 26% 29.82 in 10.0 mi West 15.0 mph - N/A   Clear
12:40 AM 64.4 °F 30.2 °F 28% 29.82 in 10.0 mi West 11.5 mph - N/A   Clear
1:00 AM 64.4 °F 30.2 °F 28% 29.82 in 10.0 mi WSW 11.5 mph - N/A   Clear
1:20 AM 62.6 °F 30.2 °F 30% 29.81 in 10.0 mi SW 11.5 mph - N/A   Clear
1:40 AM 59.0 °F 35.6 °F 42% 29.81 in 10.0 mi WSW 12.7 mph - N/A   Clear
2:00 AM 60.8 °F 32.0 °F 34% 29.80 in 10.0 mi SW 13.8 mph 19.6 mph N/A   Clear
2:20 AM 62.6 °F 30.2 °F 30% 29.80 in 10.0 mi SW 15.0 mph - N/A   Clear
2:40 AM 62.6 °F 28.4 °F 27% 29.79 in 10.0 mi SW 13.8 mph - N/A   Clear
3:00 AM 62.6 °F 26.6 °F 26% 29.80 in 10.0 mi WSW 15.0 mph - N/A   Clear
3:20 AM 62.6 °F 26.6 °F 26% 29.79 in 10.0 mi WSW 13.8 mph - N/A   Partly Cloudy
3:40 AM 60.8 °F 28.4 °F 29% 29.79 in 10.0 mi SW 15.0 mph 23.0 mph N/A   Partly Cloudy
4:00 AM 60.8 °F 28.4 °F 29% 29.80 in 10.0 mi SW 13.8 mph 20.7 mph N/A   Clear
4:20 AM 59.0 °F 28.4 °F 31% 29.80 in 10.0 mi WSW 13.8 mph - N/A   Clear
4:40 AM 60.8 °F 28.4 °F 29% 29.79 in 10.0 mi West 17.3 mph - N/A   Partly Cloudy
5:00 AM 59.0 °F 28.4 °F 31% 29.80 in 10.0 mi SW 13.8 mph - N/A   Partly Cloudy
5:20 AM 59.0 °F 30.2 °F 34% 29.79 in 10.0 mi SW 12.7 mph - N/A   Partly Cloudy
5:40 AM 57.2 °F 32.0 °F 38% 29.79 in 10.0 mi SW 13.8 mph - N/A   Clear
6:00 AM 53.6 °F 33.8 °F 47% 29.79 in 10.0 mi SW 13.8 mph - N/A   Clear
6:20 AM 53.6 °F 33.8 °F 47% 29.80 in 10.0 mi SW 13.8 mph - N/A   Clear
6:40 AM 55.4 °F 35.6 °F 47% 29.80 in 10.0 mi SW 12.7 mph - N/A   Clear
7:00 AM 57.2 °F 35.6 °F 44% 29.81 in 10.0 mi SW 12.7 mph - N/A   Clear
7:20 AM 57.2 °F 35.6 °F 44% 29.82 in 10.0 mi SW 13.8 mph - N/A   Clear
7:40 AM 59.0 °F 35.6 °F 42% 29.82 in 10.0 mi SW 11.5 mph - N/A   Clear
8:00 AM 62.6 °F 35.6 °F 37% 29.82 in 10.0 mi SW 12.7 mph - N/A   Clear
8:20 AM 62.6 °F 35.6 °F 37% 29.82 in 10.0 mi SW 15.0 mph - N/A   Clear
8:40 AM 66.2 °F 35.6 °F 32% 29.81 in 10.0 mi SW 15.0 mph 20.7 mph N/A   Clear
9:00 AM 68.0 °F 33.8 °F 28% 29.81 in 10.0 mi SW 12.7 mph 19.6 mph N/A   Clear
9:20 AM 69.8 °F 32.0 °F 25% 29.81 in 10.0 mi SW 12.7 mph - N/A   Clear
9:40 AM 71.6 °F 32.0 °F 23% 29.80 in 10.0 mi SW 12.7 mph 18.4 mph N/A   Clear
10:00 AM 71.6 °F 32.0 °F 23% 29.80 in 10.0 mi West 11.5 mph 18.4 mph N/A   Clear
10:20 AM 71.6 °F 30.2 °F 22% 29.80 in 10.0 mi WSW 12.7 mph 19.6 mph N/A   Clear
10:40 AM 73.4 °F 32.0 °F 22% 29.80 in 10.0 mi SW 15.0 mph - N/A   Clear
11:00 AM 73.4 °F 32.0 °F 22% 29.81 in 10.0 mi WSW 15.0 mph - N/A   Clear
11:20 AM 73.4 °F 35.6 °F 25% 29.80 in 10.0 mi Variable 6.9 mph 20.7 mph N/A   Clear
11:40 AM 75.2 °F 35.6 °F 24% 29.79 in 10.0 mi South 17.3 mph 27.6 mph N/A   Clear
12:00 PM 75.2 °F 32.0 °F 21% 29.79 in 10.0 mi South 20.7 mph 27.6 mph N/A   Clear
12:20 PM 75.2 °F 26.6 °F 17% 29.78 in 10.0 mi SSW 20.7 mph - N/A   Clear
12:40 PM 75.2 °F 24.8 °F 15% 29.78 in 10.0 mi SSW 23.0 mph 28.8 mph N/A   Clear
1:00 PM 75.2 °F 24.8 °F 15% 29.78 in 10.0 mi SW 18.4 mph 28.8 mph N/A   Clear
1:20 PM 75.2 °F 28.4 °F 18% 29.77 in 10.0 mi SSW 25.3 mph - N/A   Clear
1:40 PM 75.2 °F 32.0 °F 21% 29.77 in 10.0 mi South 21.9 mph 31.1 mph N/A   Clear
2:00 PM 75.2 °F 35.6 °F 24% 29.77 in 10.0 mi SSW 25.3 mph 32.2 mph N/A   Clear
2:20 PM 75.2 °F 37.4 °F 25% 29.77 in 10.0 mi SSW 18.4 mph 31.1 mph N/A   Clear
2:40 PM 77.0 °F 37.4 °F 24% 29.77 in 10.0 mi South 21.9 mph 28.8 mph N/A   Clear
3:00 PM 77.0 °F 33.8 °F 21% 29.77 in 10.0 mi SW 18.4 mph 28.8 mph N/A   Clear
3:20 PM 75.2 °F 35.6 °F 24% 29.76 in 10.0 mi SSW 23.0 mph 32.2 mph N/A   Clear
3:40 PM 75.2 °F 39.2 °F 27% 29.76 in 10.0 mi SSW 23.0 mph 31.1 mph N/A   Clear
4:00 PM 73.4 °F 39.2 °F 29% 29.76 in 10.0 mi SSW 23.0 mph 33.4 mph N/A   Clear
4:20 PM 71.6 °F 39.2 °F 31% 29.76 in 10.0 mi SSW 21.9 mph 31.1 mph N/A   Clear
4:40 PM 71.6 °F 39.2 °F 31% 29.76 in 10.0 mi SW 25.3 mph - N/A   Clear
5:00 PM 69.8 °F 42.8 °F 38% 29.76 in 10.0 mi SSW 25.3 mph - N/A   Clear
5:40 PM 68.0 °F 44.6 °F 43% 29.76 in 10.0 mi SSW 19.6 mph - N/A   Clear
6:00 PM 68.0 °F 41.0 °F 37% 29.75 in 10.0 mi SSW 26.5 mph 33.4 mph N/A   Clear
6:20 PM 68.0 °F 41.0 °F 37% 29.75 in 10.0 mi SSW 23.0 mph 31.1 mph N/A   Clear
6:40 PM 66.2 °F 41.0 °F 40% 29.76 in 10.0 mi SSW 24.2 mph 32.2 mph N/A   Clear
7:00 PM 64.4 °F 41.0 °F 42% 29.76 in 10.0 mi SSW 20.7 mph 27.6 mph N/A   Clear
7:20 PM 64.4 °F 39.2 °F 40% 29.76 in 10.0 mi SW 16.1 mph 25.3 mph N/A   Clear
7:40 PM 62.6 °F 41.0 °F 45% 29.77 in 10.0 mi SW 18.4 mph - N/A   Clear
8:00 PM 62.6 °F 37.4 °F 39% 29.78 in 10.0 mi SW 16.1 mph 23.0 mph N/A   Clear
8:20 PM 60.8 °F 41.0 °F 48% 29.79 in 10.0 mi SW 18.4 mph - N/A   Scattered Clouds
8:40 PM 59.0 °F 42.8 °F 55% 29.79 in 10.0 mi SW 13.8 mph - N/A   Mostly Cloudy
9:00 PM 59.0 °F 42.8 °F 55% 29.80 in 10.0 mi SSW 13.8 mph - N/A   Mostly Cloudy
9:20 PM 59.0 °F 41.0 °F 51% 29.81 in 10.0 mi SW 12.7 mph 18.4 mph N/A   Scattered Clouds
9:40 PM 59.0 °F 39.2 °F 48% 29.81 in 10.0 mi WSW 18.4 mph 25.3 mph N/A   Scattered Clouds
10:00 PM 59.0 °F 41.0 °F 51% 29.81 in 10.0 mi WSW 19.6 mph 25.3 mph N/A   Scattered Clouds
10:20 PM 57.2 °F 41.0 °F 55% 29.80 in 10.0 mi WSW 18.4 mph 24.2 mph N/A   Partly Cloudy
10:40 PM 57.2 °F 41.0 °F 55% 29.81 in 10.0 mi WSW 13.8 mph 21.9 mph N/A   Partly Cloudy
11:00 PM 57.2 °F 41.0 °F 55% 29.81 in 10.0 mi SW 12.7 mph - N/A   Scattered Clouds
11:20 PM 57.2 °F 41.0 °F 55% 29.81 in 10.0 mi WSW 13.8 mph - N/A   Scattered Clouds
11:40 PM 57.2 °F 41.0 °F 55% 29.81 in 10.0 mi WSW 16.1 mph - N/A   Scattered Clouds